Year,Month,Day,Hour,Minute,Value (Times are PST for windspeed in km/hr)
2019,02,11,00,00,1.80
2019,02,11,00,01,4.10
2019,02,11,00,02,2.20
2019,02,11,00,03,1.90
2019,02,11,00,04,5.90
2019,02,11,00,05,3.90
2019,02,11,00,06,3.60
2019,02,11,00,07,4.80
2019,02,11,00,08,3.90
2019,02,11,00,09,3.70
2019,02,11,00,10,6.50
2019,02,11,00,11,4.00
2019,02,11,00,12,5.20
2019,02,11,00,13,4.70
2019,02,11,00,14,3.50
2019,02,11,00,15,2.80
2019,02,11,00,16,4.00
2019,02,11,00,17,4.80
2019,02,11,00,18,4.60
2019,02,11,00,19,5.70
2019,02,11,00,20,10.70
2019,02,11,00,21,7.10
2019,02,11,00,22,8.90
2019,02,11,00,23,7.10
2019,02,11,00,24,9.50
2019,02,11,00,25,8.80
2019,02,11,00,26,4.70
2019,02,11,00,27,4.10
2019,02,11,00,28,9.70
2019,02,11,00,29,7.50
2019,02,11,00,30,7.80
2019,02,11,00,31,3.90
2019,02,11,00,32,8.40
2019,02,11,00,33,7.30
2019,02,11,00,34,6.00
2019,02,11,00,35,1.80
2019,02,11,00,36,6.70
2019,02,11,00,37,3.30
2019,02,11,00,38,2.90
2019,02,11,00,39,2.50
2019,02,11,00,40,2.60
2019,02,11,00,41,4.60
2019,02,11,00,42,3.40
2019,02,11,00,43,5.60
2019,02,11,00,44,6.40
2019,02,11,00,45,7.30
2019,02,11,00,46,6.80
2019,02,11,00,47,4.70
2019,02,11,00,48,4.30
2019,02,11,00,49,2.70
2019,02,11,00,50,5.20
2019,02,11,00,51,5.70
2019,02,11,00,52,5.40
2019,02,11,00,53,7.90
2019,02,11,00,54,4.40
2019,02,11,00,55,7.00
2019,02,11,00,56,3.10
2019,02,11,00,57,6.30
2019,02,11,00,58,7.60
2019,02,11,00,59,4.40
2019,02,11,01,00,2.60
2019,02,11,01,01,4.70
2019,02,11,01,02,7.40
2019,02,11,01,03,9.50
2019,02,11,01,04,6.90
2019,02,11,01,05,10.40
2019,02,11,01,06,6.70
2019,02,11,01,07,8.10
2019,02,11,01,08,4.00
2019,02,11,01,09,5.70
2019,02,11,01,10,4.80
2019,02,11,01,11,5.60
2019,02,11,01,12,8.10
2019,02,11,01,13,8.40
2019,02,11,01,14,7.60
2019,02,11,01,15,4.00
2019,02,11,01,16,3.00
2019,02,11,01,17,3.20
2019,02,11,01,18,0.80
2019,02,11,01,19,4.20
2019,02,11,01,20,5.20
2019,02,11,01,21,2.60
2019,02,11,01,22,0.60
2019,02,11,01,23,0.40
2019,02,11,01,24,2.70
2019,02,11,01,25,2.00
2019,02,11,01,26,3.50
2019,02,11,01,27,2.30
2019,02,11,01,28,1.60
2019,02,11,01,29,5.40
2019,02,11,01,30,3.20
2019,02,11,01,31,1.00
2019,02,11,01,32,2.70
2019,02,11,01,33,3.50
2019,02,11,01,34,3.50
2019,02,11,01,35,4.50
2019,02,11,01,36,5.10
2019,02,11,01,37,8.20
2019,02,11,01,38,8.60
2019,02,11,01,39,7.10
2019,02,11,01,40,3.20
2019,02,11,01,41,1.30
2019,02,11,01,42,2.40
2019,02,11,01,43,5.40
2019,02,11,01,44,3.50
2019,02,11,01,45,2.00
2019,02,11,01,46,5.20
2019,02,11,01,47,5.70
2019,02,11,01,48,5.00
2019,02,11,01,49,0.40
2019,02,11,01,50,0.70
2019,02,11,01,51,1.50
2019,02,11,01,52,1.40
2019,02,11,01,53,0.90
2019,02,11,01,54,3.60
2019,02,11,01,55,4.10
2019,02,11,01,56,4.00
2019,02,11,01,57,5.00
2019,02,11,01,58,3.20
2019,02,11,01,59,0.10
2019,02,11,02,00,3.90
2019,02,11,02,01,1.90
2019,02,11,02,02,0.10
2019,02,11,02,03,0.00
2019,02,11,02,04,0.70
2019,02,11,02,05,2.80
2019,02,11,02,06,4.20
2019,02,11,02,07,2.50
2019,02,11,02,08,4.80
2019,02,11,02,09,4.20
2019,02,11,02,10,0.60
2019,02,11,02,11,2.90
2019,02,11,02,12,3.00
2019,02,11,02,13,0.10
2019,02,11,02,14,0.60
2019,02,11,02,15,2.40
2019,02,11,02,16,6.10
2019,02,11,02,17,1.50
2019,02,11,02,18,0.30
2019,02,11,02,19,5.20
2019,02,11,02,20,8.10
2019,02,11,02,21,0.20
2019,02,11,02,22,0.70
2019,02,11,02,23,4.10
2019,02,11,02,24,1.80
2019,02,11,02,25,0.70
2019,02,11,02,26,2.00
2019,02,11,02,27,3.80
2019,02,11,02,28,1.20
2019,02,11,02,29,2.30
2019,02,11,02,30,1.60
2019,02,11,02,31,0.80
2019,02,11,02,32,0.10
2019,02,11,02,33,2.80
2019,02,11,02,34,3.80
2019,02,11,02,35,1.50
2019,02,11,02,36,4.10
2019,02,11,02,37,2.80
2019,02,11,02,38,1.10
2019,02,11,02,39,8.00
2019,02,11,02,40,2.40
2019,02,11,02,41,2.20
2019,02,11,02,42,1.70
2019,02,11,02,43,1.80
2019,02,11,02,44,0.90
2019,02,11,02,45,2.20
2019,02,11,02,46,1.20
2019,02,11,02,47,1.50
2019,02,11,02,48,0.10
2019,02,11,02,49,0.50
2019,02,11,02,50,3.60
2019,02,11,02,51,4.30
2019,02,11,02,52,4.60
2019,02,11,02,53,2.10
2019,02,11,02,54,0.70
2019,02,11,02,55,2.20
2019,02,11,02,56,0.20
2019,02,11,02,57,0.10
2019,02,11,02,58,0.00
2019,02,11,02,59,0.20
2019,02,11,03,00,3.10
2019,02,11,03,01,0.70
2019,02,11,03,02,2.00
2019,02,11,03,03,2.60
2019,02,11,03,04,0.60
2019,02,11,03,05,0.70
2019,02,11,03,06,1.50
2019,02,11,03,07,6.70
2019,02,11,03,08,0.20
2019,02,11,03,09,1.70
2019,02,11,03,10,0.40
2019,02,11,03,11,3.20
2019,02,11,03,12,4.80
2019,02,11,03,13,3.60
2019,02,11,03,14,7.30
2019,02,11,03,15,5.20
2019,02,11,03,16,2.50
2019,02,11,03,17,4.60
2019,02,11,03,18,4.40
2019,02,11,03,19,0.40
2019,02,11,03,20,1.80
2019,02,11,03,21,4.80
2019,02,11,03,22,2.10
2019,02,11,03,23,0.10
2019,02,11,03,24,1.10
2019,02,11,03,25,0.30
2019,02,11,03,26,2.50
2019,02,11,03,27,0.50
2019,02,11,03,28,3.50
2019,02,11,03,29,4.60
2019,02,11,03,30,2.40
2019,02,11,03,31,2.00
2019,02,11,03,32,2.80
2019,02,11,03,33,3.70
2019,02,11,03,34,4.60
2019,02,11,03,35,6.10
2019,02,11,03,36,4.10
2019,02,11,03,37,4.00
2019,02,11,03,38,2.80
2019,02,11,03,39,2.50
2019,02,11,03,40,5.50
2019,02,11,03,41,6.00
2019,02,11,03,42,5.50
2019,02,11,03,43,4.40
2019,02,11,03,44,5.10
2019,02,11,03,45,3.50
2019,02,11,03,46,8.50
2019,02,11,03,47,4.20
2019,02,11,03,48,2.60
2019,02,11,03,49,2.80
2019,02,11,03,50,2.80
2019,02,11,03,51,3.10
2019,02,11,03,52,4.40
2019,02,11,03,53,8.80
2019,02,11,03,54,8.20
2019,02,11,03,55,6.70
2019,02,11,03,56,7.20
2019,02,11,03,57,10.00
2019,02,11,03,58,8.40
2019,02,11,03,59,7.90
2019,02,11,04,00,8.30
2019,02,11,04,01,7.50
2019,02,11,04,02,8.10
2019,02,11,04,03,6.30
2019,02,11,04,04,8.40
2019,02,11,04,08,3.90
2019,02,11,04,09,6.60
2019,02,11,04,10,8.20
2019,02,11,04,11,6.70
2019,02,11,04,12,5.30
2019,02,11,04,13,4.40
2019,02,11,04,14,1.60
2019,02,11,04,15,2.60
2019,02,11,04,16,0.90
2019,02,11,04,17,4.80
2019,02,11,04,18,4.30
2019,02,11,04,19,6.60
2019,02,11,04,20,7.30
2019,02,11,04,21,8.80
2019,02,11,04,22,6.40
2019,02,11,04,23,10.00
2019,02,11,04,24,4.20
2019,02,11,04,25,4.90
2019,02,11,04,26,2.30
2019,02,11,04,27,6.10
2019,02,11,04,28,4.90
2019,02,11,04,29,2.80
2019,02,11,04,30,1.60
2019,02,11,04,31,1.10
2019,02,11,04,32,2.60
2019,02,11,04,33,1.70
2019,02,11,04,34,1.60
2019,02,11,04,35,1.40
2019,02,11,04,36,3.10
2019,02,11,04,37,3.50
2019,02,11,04,38,0.50
2019,02,11,04,39,1.20
2019,02,11,04,40,0.00
2019,02,11,04,41,2.20
2019,02,11,04,42,2.10
2019,02,11,04,43,1.70
2019,02,11,04,44,0.80
2019,02,11,04,45,1.90
2019,02,11,04,46,1.80
2019,02,11,04,47,1.00
2019,02,11,04,48,0.50
2019,02,11,04,49,1.30
2019,02,11,04,50,3.00
2019,02,11,04,51,0.70
2019,02,11,04,52,6.00
2019,02,11,04,53,3.80
2019,02,11,04,54,3.80
2019,02,11,04,55,3.10
2019,02,11,04,56,5.10
2019,02,11,04,57,5.40
2019,02,11,04,58,4.70
2019,02,11,04,59,1.70
2019,02,11,05,00,4.40
2019,02,11,05,01,6.10
2019,02,11,05,02,4.80
2019,02,11,05,03,1.70
2019,02,11,05,04,1.00
2019,02,11,05,05,4.80
2019,02,11,05,06,4.90
2019,02,11,05,07,3.90
2019,02,11,05,08,3.10
2019,02,11,05,09,5.20
2019,02,11,05,10,5.90
2019,02,11,05,11,3.50
2019,02,11,05,12,1.00
2019,02,11,05,13,8.10
2019,02,11,05,14,7.60
2019,02,11,05,15,9.80
2019,02,11,05,16,9.90
2019,02,11,05,17,5.50
2019,02,11,05,18,10.10
2019,02,11,05,19,11.00
2019,02,11,05,20,2.60
2019,02,11,05,21,8.00
2019,02,11,05,22,5.50
2019,02,11,05,23,7.70
2019,02,11,05,24,8.70
2019,02,11,05,25,6.70
2019,02,11,05,26,1.20
2019,02,11,05,27,4.70
2019,02,11,05,28,4.60
2019,02,11,05,29,6.40
2019,02,11,05,30,5.30
2019,02,11,05,31,5.20
2019,02,11,05,32,3.50
2019,02,11,05,33,5.10
2019,02,11,05,34,2.80
2019,02,11,05,35,6.60
2019,02,11,05,36,6.60
2019,02,11,05,37,1.10
2019,02,11,05,38,2.30
2019,02,11,05,39,2.90
2019,02,11,05,40,6.40
2019,02,11,05,41,6.70
2019,02,11,05,42,1.60
2019,02,11,05,43,5.70
2019,02,11,05,44,1.40
2019,02,11,05,45,5.60
2019,02,11,05,46,7.50
2019,02,11,05,47,7.20
2019,02,11,05,48,3.40
2019,02,11,05,49,5.00
2019,02,11,05,50,5.60
2019,02,11,05,51,5.70
2019,02,11,05,52,5.40
2019,02,11,05,53,5.50
2019,02,11,05,54,3.10
2019,02,11,05,55,3.60
2019,02,11,05,56,2.90
2019,02,11,05,57,1.20
2019,02,11,05,58,2.80
2019,02,11,05,59,1.10
2019,02,11,06,00,4.20
2019,02,11,06,01,5.90
2019,02,11,06,02,2.30
2019,02,11,06,03,3.90
2019,02,11,06,04,3.00
2019,02,11,06,05,1.60
2019,02,11,06,06,2.40
2019,02,11,06,07,1.20
2019,02,11,06,08,2.80
2019,02,11,06,09,2.40
2019,02,11,06,10,2.30
2019,02,11,06,11,2.30
2019,02,11,06,12,4.90
2019,02,11,06,13,4.40
2019,02,11,06,14,0.70
2019,02,11,06,15,1.30
2019,02,11,06,16,2.00
2019,02,11,06,17,3.40
2019,02,11,06,18,2.60
2019,02,11,06,19,3.50
2019,02,11,06,20,1.90
2019,02,11,06,21,1.10
2019,02,11,06,22,1.50
2019,02,11,06,23,3.70
2019,02,11,06,24,2.50
2019,02,11,06,25,2.80
2019,02,11,06,26,1.60
2019,02,11,06,27,2.90
2019,02,11,06,28,3.20
2019,02,11,06,29,1.20
2019,02,11,06,30,2.60
2019,02,11,06,31,2.90
2019,02,11,06,32,3.40
2019,02,11,06,33,5.50
2019,02,11,06,34,3.30
2019,02,11,06,35,2.50
2019,02,11,06,36,0.20
2019,02,11,06,37,3.20
2019,02,11,06,38,3.70
2019,02,11,06,39,0.70
2019,02,11,06,40,1.20
2019,02,11,06,41,0.90
2019,02,11,06,42,2.00
2019,02,11,06,43,4.00
2019,02,11,06,44,4.10
2019,02,11,06,45,2.40
2019,02,11,06,46,0.70
2019,02,11,06,47,1.30
2019,02,11,06,48,0.60
2019,02,11,06,49,0.20
2019,02,11,06,50,1.10
2019,02,11,06,51,2.90
2019,02,11,06,52,3.40
2019,02,11,06,53,3.70
2019,02,11,06,54,4.00
2019,02,11,06,55,4.00
2019,02,11,06,56,4.70
2019,02,11,06,57,2.40
2019,02,11,06,58,0.30
2019,02,11,06,59,0.10
2019,02,11,07,00,1.90
2019,02,11,07,01,3.00
2019,02,11,07,02,6.40
2019,02,11,07,03,7.80
2019,02,11,07,04,7.90
2019,02,11,07,05,6.40
2019,02,11,07,06,7.00
2019,02,11,07,07,4.30
2019,02,11,07,08,1.80
2019,02,11,07,09,2.10
2019,02,11,07,10,3.50
2019,02,11,07,11,0.70
2019,02,11,07,12,1.50
2019,02,11,07,13,1.00
2019,02,11,07,14,2.70
2019,02,11,07,15,2.20
2019,02,11,07,16,0.90
2019,02,11,07,17,1.70
2019,02,11,07,18,0.30
2019,02,11,07,19,0.10
2019,02,11,07,20,1.00
2019,02,11,07,21,1.80
2019,02,11,07,22,1.70
2019,02,11,07,23,2.90
2019,02,11,07,24,0.60
2019,02,11,07,25,1.50
2019,02,11,07,26,0.40
2019,02,11,07,27,1.80
2019,02,11,07,28,2.50
2019,02,11,07,29,2.00
2019,02,11,07,30,3.10
2019,02,11,07,31,5.40
2019,02,11,07,32,5.00
2019,02,11,07,33,3.60
2019,02,11,07,34,4.40
2019,02,11,07,35,4.40
2019,02,11,07,36,5.40
2019,02,11,07,37,5.40
2019,02,11,07,38,5.70
2019,02,11,07,39,3.90
2019,02,11,07,40,3.10
2019,02,11,07,41,3.90
2019,02,11,07,42,4.30
2019,02,11,07,43,2.70
2019,02,11,07,44,4.50
2019,02,11,07,45,3.40
2019,02,11,07,46,0.80
2019,02,11,07,47,3.10
2019,02,11,07,48,1.60
2019,02,11,07,49,1.70
2019,02,11,07,50,1.50
2019,02,11,07,51,3.10
2019,02,11,07,52,3.20
2019,02,11,07,53,4.00
2019,02,11,07,54,0.60
2019,02,11,07,55,3.20
2019,02,11,07,56,1.50
2019,02,11,07,57,2.50
2019,02,11,07,58,4.20
2019,02,11,07,59,2.60
2019,02,11,08,00,1.50
2019,02,11,08,01,2.00
2019,02,11,08,02,0.20
2019,02,11,08,03,0.00
2019,02,11,08,04,1.50
2019,02,11,08,05,0.20
2019,02,11,08,06,0.60
2019,02,11,08,07,0.20
2019,02,11,08,08,0.50
2019,02,11,08,09,0.80
2019,02,11,08,10,0.60
2019,02,11,08,11,1.70
2019,02,11,08,12,0.50
2019,02,11,08,13,0.70
2019,02,11,08,14,0.10
2019,02,11,08,15,0.70
2019,02,11,08,16,1.90
2019,02,11,08,17,0.80
2019,02,11,08,18,2.80
2019,02,11,08,19,3.10
2019,02,11,08,20,3.40
2019,02,11,08,21,3.40
2019,02,11,08,22,1.00
2019,02,11,08,23,0.00
2019,02,11,08,24,0.30
2019,02,11,08,25,0.00
2019,02,11,08,26,0.00
2019,02,11,08,27,0.20
2019,02,11,08,28,0.00
2019,02,11,08,29,0.00
2019,02,11,08,30,0.00
2019,02,11,08,31,0.80
2019,02,11,08,32,1.80
2019,02,11,08,33,1.10
2019,02,11,08,34,1.40
2019,02,11,08,35,2.30
2019,02,11,08,36,1.00
2019,02,11,08,37,0.00
2019,02,11,08,38,0.10
2019,02,11,08,39,1.60
2019,02,11,08,40,0.20
2019,02,11,08,41,0.20
2019,02,11,08,42,0.00
2019,02,11,08,43,0.00
2019,02,11,08,44,0.00
2019,02,11,08,45,0.00
2019,02,11,08,46,0.00
2019,02,11,08,47,0.10
2019,02,11,08,48,0.20
2019,02,11,08,49,1.00
2019,02,11,08,50,0.40
2019,02,11,08,51,0.20
2019,02,11,08,52,0.40
2019,02,11,08,53,0.80
2019,02,11,08,54,1.80
2019,02,11,08,55,1.00
2019,02,11,08,56,2.80
2019,02,11,08,57,2.30
2019,02,11,08,58,4.00
2019,02,11,08,59,4.90
2019,02,11,09,00,4.20
2019,02,11,09,01,2.80
2019,02,11,09,02,3.10
2019,02,11,09,03,2.60
2019,02,11,09,04,0.70
2019,02,11,09,05,1.20
2019,02,11,09,06,2.60
2019,02,11,09,07,2.40
2019,02,11,09,08,3.10
2019,02,11,09,09,2.70
2019,02,11,09,10,2.80
2019,02,11,09,11,2.30
2019,02,11,09,12,4.50
2019,02,11,09,13,4.50
2019,02,11,09,14,3.60
2019,02,11,09,15,4.20
2019,02,11,09,16,4.40
2019,02,11,09,17,5.80
2019,02,11,09,18,6.00
2019,02,11,09,19,5.90
2019,02,11,09,20,5.90
2019,02,11,09,21,5.60
2019,02,11,09,22,6.40
2019,02,11,09,23,5.30
2019,02,11,09,24,8.40
2019,02,11,09,25,6.50
2019,02,11,09,26,7.70
2019,02,11,09,27,8.60
2019,02,11,09,28,6.10
2019,02,11,09,29,7.00
2019,02,11,09,30,8.90
2019,02,11,09,31,8.40
2019,02,11,09,32,6.60
2019,02,11,09,33,6.90
2019,02,11,09,34,7.10
2019,02,11,09,35,7.30
2019,02,11,09,36,8.00
2019,02,11,09,37,6.50
2019,02,11,09,38,6.30
2019,02,11,09,39,9.20
2019,02,11,09,40,7.30
2019,02,11,09,41,10.30
2019,02,11,09,42,9.90
2019,02,11,09,43,7.80
2019,02,11,09,44,8.60
2019,02,11,09,45,7.80
2019,02,11,09,46,7.20
2019,02,11,09,47,7.40
2019,02,11,09,48,6.10
2019,02,11,09,49,7.40
2019,02,11,09,50,8.40
2019,02,11,09,51,8.00
2019,02,11,09,52,3.70
2019,02,11,09,53,3.60
2019,02,11,09,54,6.40
2019,02,11,09,55,5.40
2019,02,11,09,56,4.60
2019,02,11,09,57,4.10
2019,02,11,09,58,8.10
2019,02,11,09,59,4.40
2019,02,11,10,00,6.40
2019,02,11,10,01,11.80
2019,02,11,10,02,11.50
2019,02,11,10,03,14.80
2019,02,11,10,04,11.40
2019,02,11,10,05,12.60
2019,02,11,10,06,14.30
2019,02,11,10,07,14.50
2019,02,11,10,08,11.30
2019,02,11,10,09,13.60
2019,02,11,10,10,11.00
2019,02,11,10,11,11.20
2019,02,11,10,12,5.80
2019,02,11,10,13,7.20
2019,02,11,10,14,10.40
2019,02,11,10,15,10.20
2019,02,11,10,16,12.10
2019,02,11,10,17,10.50
2019,02,11,10,18,10.30
2019,02,11,10,19,7.20
2019,02,11,10,20,10.90
2019,02,11,10,21,8.60
2019,02,11,10,22,9.00
2019,02,11,10,23,9.20
2019,02,11,10,24,8.80
2019,02,11,10,25,7.60
2019,02,11,10,26,11.00
2019,02,11,10,27,7.60
2019,02,11,10,28,9.60
2019,02,11,10,29,7.40
2019,02,11,10,30,8.30
2019,02,11,10,31,9.40
2019,02,11,10,32,10.00
2019,02,11,10,33,7.30
2019,02,11,10,34,6.20
2019,02,11,10,35,10.00
2019,02,11,10,36,9.30
2019,02,11,10,37,8.10
2019,02,11,10,38,7.40
2019,02,11,10,39,6.20
2019,02,11,10,40,7.50
2019,02,11,10,41,8.70
2019,02,11,10,42,7.70
2019,02,11,10,43,8.00
2019,02,11,10,44,6.10
2019,02,11,10,45,7.00
2019,02,11,10,46,8.10
2019,02,11,10,47,8.20
2019,02,11,10,48,8.30
2019,02,11,10,49,2.90
2019,02,11,10,50,10.10
2019,02,11,10,51,5.60
2019,02,11,10,52,7.90
2019,02,11,10,53,12.90
2019,02,11,10,54,12.30
2019,02,11,10,55,13.20
2019,02,11,10,56,10.90
2019,02,11,10,57,9.70
2019,02,11,10,58,7.10
2019,02,11,10,59,9.80
2019,02,11,11,00,9.60
2019,02,11,11,01,8.10
2019,02,11,11,02,10.40
2019,02,11,11,03,12.10
2019,02,11,11,04,12.00
2019,02,11,11,05,5.40
2019,02,11,11,06,11.00
2019,02,11,11,07,9.70
2019,02,11,11,08,11.80
2019,02,11,11,09,11.50
2019,02,11,11,10,5.90
2019,02,11,11,11,5.30
2019,02,11,11,12,7.70
2019,02,11,11,13,9.10
2019,02,11,11,14,9.00
2019,02,11,11,15,7.60
2019,02,11,11,16,11.00
2019,02,11,11,17,10.20
2019,02,11,11,18,9.30
2019,02,11,11,19,8.10
2019,02,11,11,20,7.90
2019,02,11,11,21,9.40
2019,02,11,11,22,7.00
2019,02,11,11,23,6.60
2019,02,11,11,24,10.00
2019,02,11,11,25,13.00
2019,02,11,11,26,9.20
2019,02,11,11,27,8.20
2019,02,11,11,28,9.50
2019,02,11,11,29,11.50
2019,02,11,11,30,9.40
2019,02,11,11,31,7.50
2019,02,11,11,32,8.60
2019,02,11,11,33,10.70
2019,02,11,11,34,7.10
2019,02,11,11,35,7.70
2019,02,11,11,36,9.70
2019,02,11,11,37,10.20
2019,02,11,11,38,5.30
2019,02,11,11,39,10.20
2019,02,11,11,40,9.50
2019,02,11,11,41,7.40
2019,02,11,11,42,12.40
2019,02,11,11,43,13.50
2019,02,11,11,44,14.90
2019,02,11,11,45,12.20
2019,02,11,11,46,10.50
2019,02,11,11,47,10.20
2019,02,11,11,48,9.30
2019,02,11,11,49,11.90
2019,02,11,11,50,14.60
2019,02,11,11,51,8.80
2019,02,11,11,52,8.10
2019,02,11,11,53,8.70
2019,02,11,11,54,7.30
2019,02,11,11,55,8.00
2019,02,11,11,56,11.00
2019,02,11,11,57,9.50
2019,02,11,11,58,12.30
2019,02,11,11,59,10.60
2019,02,11,12,00,8.70
2019,02,11,12,01,13.50
2019,02,11,12,02,13.00
2019,02,11,12,03,9.70
2019,02,11,12,04,7.40
2019,02,11,12,05,9.30
2019,02,11,12,06,10.70
2019,02,11,12,07,12.70
2019,02,11,12,08,11.00
2019,02,11,12,09,13.40
2019,02,11,12,10,12.30
2019,02,11,12,11,10.50
2019,02,11,12,12,9.90
2019,02,11,12,13,9.70
2019,02,11,12,14,8.10
2019,02,11,12,15,10.60
2019,02,11,12,16,11.90
2019,02,11,12,17,9.40
2019,02,11,12,18,7.80
2019,02,11,12,19,8.70
2019,02,11,12,20,10.90
2019,02,11,12,21,10.30
2019,02,11,12,22,7.80
2019,02,11,12,23,14.00
2019,02,11,12,24,7.90
2019,02,11,12,25,9.40
2019,02,11,12,26,10.00
2019,02,11,12,27,5.90
2019,02,11,12,28,7.70
2019,02,11,12,29,11.60
2019,02,11,12,30,8.80
2019,02,11,12,31,10.80
2019,02,11,12,32,5.60
2019,02,11,12,33,9.60
2019,02,11,12,34,7.20
2019,02,11,12,35,11.30
2019,02,11,12,36,5.10
2019,02,11,12,37,5.70
2019,02,11,12,38,7.60
2019,02,11,12,39,7.50
2019,02,11,12,40,7.40
2019,02,11,12,41,6.00
2019,02,11,12,42,6.70
2019,02,11,12,43,9.40
2019,02,11,12,44,2.70
2019,02,11,12,45,6.90
2019,02,11,12,46,7.40
2019,02,11,12,47,6.10
2019,02,11,12,48,8.40
2019,02,11,12,49,10.00
2019,02,11,12,50,8.40
2019,02,11,12,51,5.60
2019,02,11,12,52,8.70
2019,02,11,12,53,7.00
2019,02,11,12,54,7.70
2019,02,11,12,55,7.40
2019,02,11,12,56,7.40
2019,02,11,12,57,2.80
2019,02,11,12,58,8.30
2019,02,11,12,59,7.10
2019,02,11,13,00,7.20
2019,02,11,13,01,7.00
2019,02,11,13,02,6.80
2019,02,11,13,03,10.60
2019,02,11,13,04,10.70
2019,02,11,13,05,11.00
2019,02,11,13,06,10.70
2019,02,11,13,07,6.10
2019,02,11,13,08,14.20
2019,02,11,13,09,14.10
2019,02,11,13,10,11.70
2019,02,11,13,11,11.00
2019,02,11,13,12,13.30
2019,02,11,13,13,9.20
2019,02,11,13,14,8.80
2019,02,11,13,15,8.50
2019,02,11,13,16,10.40
2019,02,11,13,17,7.70
2019,02,11,13,18,9.00
2019,02,11,13,19,12.00
2019,02,11,13,20,11.20
2019,02,11,13,21,11.50
2019,02,11,13,22,9.70
2019,02,11,13,23,10.70
2019,02,11,13,24,6.20
2019,02,11,13,25,9.40
2019,02,11,13,26,10.40
2019,02,11,13,27,8.80
2019,02,11,13,28,7.70
2019,02,11,13,29,7.80
2019,02,11,13,30,9.00
2019,02,11,13,31,13.90
2019,02,11,13,32,14.60
2019,02,11,13,33,12.30
2019,02,11,13,34,12.20
2019,02,11,13,35,6.30
2019,02,11,13,36,9.50
2019,02,11,13,37,10.50
2019,02,11,13,38,14.20
2019,02,11,13,39,13.40
2019,02,11,13,40,11.60
2019,02,11,13,41,17.20
2019,02,11,13,42,17.20
2019,02,11,13,43,14.50
2019,02,11,13,44,14.90
2019,02,11,13,45,11.00
2019,02,11,13,46,9.00
2019,02,11,13,47,11.30
2019,02,11,13,48,7.30
2019,02,11,13,49,9.50
2019,02,11,13,50,13.10
2019,02,11,13,51,12.60
2019,02,11,13,52,13.00
2019,02,11,13,53,10.90
2019,02,11,13,54,6.50
2019,02,11,13,55,9.10
2019,02,11,13,56,9.70
2019,02,11,13,57,10.20
2019,02,11,13,58,11.30
2019,02,11,13,59,11.30
2019,02,11,14,00,9.70
2019,02,11,14,01,10.40
2019,02,11,14,02,10.40
2019,02,11,14,03,15.40
2019,02,11,14,04,12.20
2019,02,11,14,05,13.90
2019,02,11,14,06,10.50
2019,02,11,14,07,13.70
2019,02,11,14,08,12.40
2019,02,11,14,09,12.70
2019,02,11,14,10,11.00
2019,02,11,14,11,11.90
2019,02,11,14,12,11.60
2019,02,11,14,13,14.30
2019,02,11,14,14,10.10
2019,02,11,14,15,15.50
2019,02,11,14,16,10.90
2019,02,11,14,17,10.60
2019,02,11,14,18,12.40
2019,02,11,14,19,14.20
2019,02,11,14,20,13.00
2019,02,11,14,21,12.10
2019,02,11,14,22,12.50
2019,02,11,14,23,14.20
2019,02,11,14,24,8.80
2019,02,11,14,25,8.40
2019,02,11,14,26,12.50
2019,02,11,14,27,9.10
2019,02,11,14,28,11.80
2019,02,11,14,29,10.50
2019,02,11,14,30,10.80
2019,02,11,14,31,13.20
2019,02,11,14,32,10.40
2019,02,11,14,33,12.90
2019,02,11,14,34,11.30
2019,02,11,14,35,10.90
2019,02,11,14,36,10.20
2019,02,11,14,37,11.10
2019,02,11,14,38,13.00
2019,02,11,14,39,12.20
2019,02,11,14,40,13.60
2019,02,11,14,41,10.20
2019,02,11,14,42,12.20
2019,02,11,14,43,15.10
2019,02,11,14,44,14.60
2019,02,11,14,45,12.60
2019,02,11,14,46,13.60
2019,02,11,14,47,13.90
2019,02,11,14,48,9.10
2019,02,11,14,49,10.90
2019,02,11,14,50,12.00
2019,02,11,14,51,15.30
2019,02,11,14,52,11.70
2019,02,11,14,53,12.00
2019,02,11,14,54,14.30
2019,02,11,14,55,13.50
2019,02,11,14,56,10.20
2019,02,11,14,57,16.80
2019,02,11,14,58,15.20
2019,02,11,14,59,13.60
2019,02,11,15,00,9.50
2019,02,11,15,01,6.40
2019,02,11,15,02,4.90
2019,02,11,15,03,8.10
2019,02,11,15,04,15.40
2019,02,11,15,05,10.00
2019,02,11,15,06,12.30
2019,02,11,15,07,13.70
2019,02,11,15,08,14.40
2019,02,11,15,09,9.90
2019,02,11,15,10,8.90
2019,02,11,15,11,13.00
2019,02,11,15,12,14.90
2019,02,11,15,13,10.90
2019,02,11,15,14,15.20
2019,02,11,15,15,11.00
2019,02,11,15,16,12.70
2019,02,11,15,17,15.80
2019,02,11,15,18,14.90
2019,02,11,15,19,15.00
2019,02,11,15,20,12.20
2019,02,11,15,21,13.10
2019,02,11,15,22,11.20
2019,02,11,15,23,8.00
2019,02,11,15,24,12.10
2019,02,11,15,25,13.20
2019,02,11,15,26,12.30
2019,02,11,15,27,12.50
2019,02,11,15,28,14.50
2019,02,11,15,29,14.00
2019,02,11,15,30,16.70
2019,02,11,15,31,17.30
2019,02,11,15,32,12.40
2019,02,11,15,33,10.50
2019,02,11,15,34,11.90
2019,02,11,15,35,10.50
2019,02,11,15,36,11.70
2019,02,11,15,37,5.60
2019,02,11,15,38,10.00
2019,02,11,15,39,10.30
2019,02,11,15,40,10.60
2019,02,11,15,41,14.10
2019,02,11,15,42,9.40
2019,02,11,15,43,9.90
2019,02,11,15,44,10.60
2019,02,11,15,45,9.50
2019,02,11,15,46,10.80
2019,02,11,15,47,15.40
2019,02,11,15,48,10.30
2019,02,11,15,49,10.40
2019,02,11,15,50,8.60
2019,02,11,15,51,10.20
2019,02,11,15,52,9.10
2019,02,11,15,53,8.50
2019,02,11,15,54,10.60
2019,02,11,15,55,9.90
2019,02,11,15,56,9.40
2019,02,11,15,57,15.40
2019,02,11,15,58,13.90
2019,02,11,15,59,13.70
2019,02,11,16,00,12.40
2019,02,11,16,01,10.40
2019,02,11,16,02,6.30
2019,02,11,16,03,8.30
2019,02,11,16,04,11.80
2019,02,11,16,05,9.60
2019,02,11,16,06,5.90
2019,02,11,16,07,9.40
2019,02,11,16,08,8.50
2019,02,11,16,09,11.80
2019,02,11,16,10,12.40
2019,02,11,16,11,7.70
2019,02,11,16,12,11.80
2019,02,11,16,13,12.70
2019,02,11,16,14,14.60
2019,02,11,16,15,10.70
2019,02,11,16,16,12.50
2019,02,11,16,17,10.20
2019,02,11,16,18,7.40
2019,02,11,16,19,8.60
2019,02,11,16,20,10.20
2019,02,11,16,21,9.80
2019,02,11,16,22,10.70
2019,02,11,16,23,9.70
2019,02,11,16,24,11.10
2019,02,11,16,25,12.60
2019,02,11,16,26,13.20
2019,02,11,16,27,12.90
2019,02,11,16,28,8.90
2019,02,11,16,29,11.50
2019,02,11,16,30,12.80
2019,02,11,16,31,17.70
2019,02,11,16,32,13.50
2019,02,11,16,33,15.60
2019,02,11,16,34,14.00
2019,02,11,16,35,16.80
2019,02,11,16,36,13.60
2019,02,11,16,37,16.00
2019,02,11,16,38,17.40
2019,02,11,16,39,12.50
2019,02,11,16,40,18.40
2019,02,11,16,41,17.10
2019,02,11,16,42,19.00
2019,02,11,16,43,16.50
2019,02,11,16,44,11.50
2019,02,11,16,45,8.90
2019,02,11,16,46,13.80
2019,02,11,16,47,11.90
2019,02,11,16,48,14.00
2019,02,11,16,49,15.40
2019,02,11,16,50,13.30
2019,02,11,16,51,15.30
2019,02,11,16,52,16.20
2019,02,11,16,53,13.70
2019,02,11,16,54,16.20
2019,02,11,16,55,13.80
2019,02,11,16,56,11.90
2019,02,11,16,57,13.60
2019,02,11,16,58,10.30
2019,02,11,16,59,10.60
2019,02,11,17,00,13.70
2019,02,11,17,01,13.50
2019,02,11,17,02,9.40
2019,02,11,17,03,15.10
2019,02,11,17,04,13.60
2019,02,11,17,05,14.30
2019,02,11,17,06,14.70
2019,02,11,17,07,5.70
2019,02,11,17,08,10.80
2019,02,11,17,09,5.30
2019,02,11,17,10,7.20
2019,02,11,17,11,10.40
2019,02,11,17,12,10.50
2019,02,11,17,13,9.10
2019,02,11,17,14,11.50
2019,02,11,17,15,10.80
2019,02,11,17,16,11.90
2019,02,11,17,17,14.90
2019,02,11,17,18,14.60
2019,02,11,17,19,14.60
2019,02,11,17,20,12.50
2019,02,11,17,21,9.90
2019,02,11,17,22,12.70
2019,02,11,17,23,10.10
2019,02,11,17,24,9.10
2019,02,11,17,25,12.20
2019,02,11,17,26,17.40
2019,02,11,17,27,10.70
2019,02,11,17,28,13.30
2019,02,11,17,29,12.70
2019,02,11,17,30,15.00
2019,02,11,17,31,16.60
2019,02,11,17,32,14.30
2019,02,11,17,33,16.60
2019,02,11,17,34,17.00
2019,02,11,17,35,17.00
2019,02,11,17,36,12.70
2019,02,11,17,37,13.80
2019,02,11,17,38,13.80
2019,02,11,17,39,13.10
2019,02,11,17,40,15.60
2019,02,11,17,41,10.50
2019,02,11,17,42,13.90
2019,02,11,17,43,6.60
2019,02,11,17,44,10.30
2019,02,11,17,45,9.40
2019,02,11,17,46,7.40
2019,02,11,17,47,10.20
2019,02,11,17,48,8.40
2019,02,11,17,49,11.80
2019,02,11,17,50,9.50
2019,02,11,17,51,12.70
2019,02,11,17,52,12.80
2019,02,11,17,53,12.10
2019,02,11,17,54,10.90
2019,02,11,17,55,6.50